GEFSGL_con_probscp_150.txt.gz
Probability
1 2 2 1 2 2 1 0 0 0 0 0 0 0 0 0 0 0 0 0 0 0 0 0 0 0 0 0 0 0 0 0 0 0 0 0 0 0 0 0 0 0 0
0 1 1 0 1 1 0 0 0 0 0 0 0 0 0 0 0 0 0 0 0 0 0 0 0 0 0 0 0 0 0 0 0 0 0 0 0 0 0 0 0 0 0
0 0 0 0 0 0 0 0 0 0 0 0 0 0 0 0 0 0 0 0 0 0 0 0 0 0 0 0 0 0 0 0 0 0 0 0 0 0 0 0 0 0 0
0 0 0 0 0 0 0 0 0 0 0 0 0 0 0 0 0 0 0 0 0 0 0 0 0 0 0 0 0 0 0 0 0 0 0 0 0 0 0 0 0 0 0
0 0 0 0 0 0 0 0 0 0 0 0 0 0 0 0 0 0 0 0 0 0 0 0 0 0 0 0 0 0 0 0 0 0 0 0 0 0 0 0 0 0 0
1 1 0 1 1 0 0 0 0 0 0 0 0 0 0 1 1 0 0 0 0 0 0 0 0 0 0 0 0 0 0 0 0 0 0 0 0 0 0 0 0 0 0
2 2 1 1 1 0 0 0 1 0 0 0 0 0 1 1 1 0 0 0 0 0 0 0 0 0 0 0 0 0 0 0 0 0 0 0 0 0 0 0 0 0 0
3 3 2 1 1 0 0 0 0 0 0 0 0 0 1 1 1 0 0 0 0 0 0 0 0 0 0 0 0 0 0 0 0 0 0 0 0 0 0 0 0 0 0
3 3 3 1 1 1 1 0 0 0 0 0 0 0 0 0 0 0 0 0 0 0 0 0 0 0 0 0 0 0 0 0 0 0 0 0 0 0 0 0 0 0 0
3 3 3 3 2 2 2 1 0 0 0 0 0 0 0 0 0 0 0 0 0 0 0 0 0 0 0 0 0 0 0 0 0 0 0 0 0 0 0 0 0 0 0
3 3 3 3 3 3 3 2 1 1 1 1 0 0 0 0 0 0 0 0 0 0 0 0 0 0 0 0 0 0 0 0 0 0 0 0 0 0 0 0 0 0 0
4 4 3 2 2 3 3 3 3 2 2 2 1 0 0 0 0 0 0 0 0 0 0 0 0 0 0 0 0 0 0 0 0 0 0 0 0 0 0 0 0 0 0
5 4 3 2 2 3 3 3 3 3 3 3 2 1 1 0 0 0 0 0 0 0 0 0 0 0 0 0 0 0 0 0 0 0 0 0 0 0 0 0 0 0 0
4 4 3 3 3 3 3 3 3 3 3 3 3 3 2 1 0 0 0 0 0 0 0 0 0 0 0 0 0 0 0 0 0 0 0 0 0 0 0 0 0 0 0
3 3 4 4 4 3 3 3 2 2 2 3 3 3 3 2 0 0 0 0 0 0 0 0 0 0 0 0 0 0 0 0 0 0 0 0 0 0 0 0 0 0 0
3 3 4 4 4 3 2 1 1 1 1 1 2 2 2 1 0 0 0 0 0 0 0 0 0 0 0 0 0 0 0 0 0 0 0 0 0 0 0 0 0 0 0
3 3 3 3 2 1 1 0 0 0 0 0 1 1 1 0 0 0 0 0 0 0 0 0 0 0 0 0 0 0 0 0 0 0 0 0 0 0 0 0 0 0 0
3 3 2 1 1 1 1 0 0 0 0 0 0 0 0 0 0 0 0 0 0 0 0 0 0 0 0 0 0 0 0 0 0 0 0 0 0 0 0 0 0 0 0
3 2 1 0 0 0 0 0 0 0 0 0 0 0 0 0 0 0 0 0 0 0 0 0 0 0 0 0 0 0 0 0 0 0 0 0 0 0 0 0 0 0 0
2 1 0 0 0 0 0 0 0 0 0 0 0 0 0 0 0 0 0 0 0 0 0 0 0 0 0 0 0 0 0 0 0 0 0 0 0 0 0 0 0 0 0
2 1 0 0 0 0 0 0 0 0 0 0 0 0 0 0 0 0 0 0 0 0 0 0 0 0 0 0 0 0 0 0 0 0 0 0 0 0 0 0 0 0 0
1 0 0 0 0 0 0 0 0 0 0 0 0 0 0 0 0 0 0 0 0 0 0 0 0 0 0 0 0 0 0 0 0 0 0 0 0 0 0 0 0 0 0
0 0 0 0 0 0 0 0 0 0 0 0 0 0 0 0 0 0 0 0 0 0 0 0 0 0 0 0 0 0 0 0 0 0 0 0 0 0 0 0 0 0 0
0 0 0 0 0 0 0 0 0 0 0 0 0 0 0 0 0 0 0 0 0 0 0 0 0 0 0 0 0 0 0 0 0 0 0 0 0 0 0 0 0 0 0
0 0 0 0 0 0 0 0 0 0 0 0 0 0 0 0 0 0 0 0 0 0 0 0 0 0 0 0 0 0 0 0 0 0 0 0 0 0 0 0 0 0 0
0 0 0 0 0 0 0 0 0 0 0 0 0 0 0 0 0 0 0 0 0 0 0 0 0 0 0 0 0 0 0 0 0 0 0 0 0 0 0 0 0 0 0

GEFSGL_con_probscp_156.txt.gz
Probability
7 6 5 5 5 4 3 3 3 3 3 3 4 5 4 3 3 3 2 3 5 7 7 8 11 14 17 18 16 13 12 12 10 10 11 9 7 5 4 5 4 4 4
7 6 5 6 6 4 3 3 3 3 4 3 3 4 3 1 2 2 2 2 5 6 7 9 10 11 13 14 13 12 11 10 8 8 9 9 7 4 4 4 4 3 3
8 8 8 8 8 6 4 4 4 4 4 2 1 1 1 0 0 1 2 3 4 5 6 8 8 7 9 10 9 9 8 8 7 7 9 10 7 4 3 3 4 4 3
8 10 11 11 9 7 5 5 4 3 2 1 0 0 0 0 0 0 1 2 3 4 6 7 6 5 6 7 7 7 8 7 7 7 8 9 7 3 2 2 2 2 2
10 11 12 11 9 8 6 5 3 2 1 2 1 0 0 0 0 0 0 2 3 4 6 7 6 5 4 4 4 6 7 5 4 4 5 6 5 3 1 1 1 1 1
14 14 13 11 11 10 7 5 3 2 2 3 2 1 1 1 0 0 0 2 3 4 7 8 6 4 3 2 2 2 3 2 1 1 2 4 5 3 2 1 1 1 2
19 18 17 16 14 12 9 6 5 4 3 2 1 1 1 1 0 0 0 1 3 5 7 7 6 4 3 3 1 1 1 1 0 0 1 2 4 5 5 5 4 3 2
22 21 20 19 17 13 9 8 6 3 1 1 0 1 1 1 0 0 0 0 2 5 6 6 5 4 4 4 3 3 3 2 0 0 0 1 3 5 6 6 5 2 1
24 22 19 18 16 12 10 9 7 3 1 0 1 2 2 1 0 0 0 1 3 5 5 4 3 3 3 3 3 4 5 4 2 0 0 0 1 2 4 4 3 1 0
23 21 17 15 13 12 11 10 7 5 2 1 2 3 3 2 1 0 1 2 3 4 4 3 2 1 1 1 3 4 5 5 4 2 1 1 1 2 2 2 2 1 0
20 18 15 12 11 12 12 10 8 6 4 3 3 4 3 3 2 1 1 2 3 3 3 3 2 1 0 0 1 3 3 4 4 2 2 2 2 2 1 1 1 0 0
18 17 14 11 10 11 11 10 9 7 6 5 4 4 4 3 3 1 0 1 1 2 3 3 2 1 0 0 0 1 1 1 1 1 1 2 1 1 0 0 0 0 0
18 16 13 11 10 10 11 11 10 8 6 4 4 4 3 3 3 2 1 0 0 1 2 2 2 1 0 0 0 0 0 0 0 0 0 0 0 0 0 0 0 0 0
15 14 11 10 10 10 11 11 10 8 6 4 3 3 3 3 3 3 1 1 1 0 1 1 1 0 0 0 0 0 0 0 0 0 0 0 0 0 0 0 0 0 0
11 10 9 9 9 10 10 10 8 6 4 3 2 3 3 3 3 2 2 2 1 0 0 0 0 0 0 0 0 0 0 0 0 0 0 0 0 0 0 0 0 0 0
8 8 7 8 9 9 9 8 6 4 2 1 1 1 2 2 2 1 1 1 1 0 0 0 0 0 0 0 0 0 0 0 0 0 0 0 0 0 0 0 0 0 0
6 6 5 5 7 9 10 8 5 2 1 1 0 0 1 1 1 0 0 0 0 0 0 1 0 0 0 0 0 0 0 0 0 0 0 0 0 0 0 0 0 0 0
4 4 4 4 6 8 9 7 4 2 2 1 0 0 0 0 0 0 0 0 0 0 0 0 0 0 0 0 0 0 0 0 0 0 0 0 0 0 0 0 0 0 0
4 4 3 4 6 6 6 4 2 1 1 1 0 0 0 0 0 0 0 0 0 0 0 0 0 0 0 0 0 0 0 0 0 0 0 0 0 0 0 0 0 0 0
5 4 3 4 5 4 3 1 0 0 0 0 0 0 0 0 0 0 0 0 0 0 0 0 0 0 0 0 0 0 0 0 0 0 0 0 0 0 0 0 0 0 0
4 4 3 4 4 3 2 1 0 0 0 0 0 0 0 0 0 0 0 0 0 0 0 0 0 0 0 0 0 0 0 0 0 0 0 0 0 0 0 0 0 0 0
3 4 5 5 3 2 2 1 0 0 0 0 0 0 0 0 0 0 0 0 0 0 0 0 0 0 0 0 0 0 0 0 0 0 0 0 0 0 0 0 0 0 0
2 3 4 4 2 1 1 1 0 0 0 0 0 0 0 0 0 0 0 0 0 0 0 0 0 0 0 0 0 0 0 0 0 0 0 0 0 0 0 0 0 0 0
1 1 1 1 0 0 0 0 0 0 0 0 0 0 0 0 0 0 0 0 0 0 0 0 0 0 0 0 0 0 0 0 0 0 0 0 0 0 0 0 0 0 0
0 0 0 0 0 0 0 0 0 0 0 0 0 0 0 0 0 0 0 0 0 0 0 0 0 0 0 0 0 0 0 0 0 0 0 0 0 0 0 0 0 0 0
0 0 0 0 0 0 0 0 0 0 0 0 0 0 0 0 0 0 0 0 0 0 0 0 0 0 0 0 0 0 0 0 0 0 0 0 0 0 0 0 0 0 0

GEFSGL_con_probscp_162.txt.gz
Probability
19 18 17 17 17 16 13 11 10 9 7 9 10 11 10 9 8 6 6 6 6 5 5 5 5 6 5 4 4 4 5 5 4 2 3 6 11 11 10 12 10 5 2
21 20 19 17 17 15 13 11 11 10 9 10 12 12 10 9 8 6 4 4 3 3 4 5 4 4 5 4 4 4 4 5 5 4 4 7 9 10 11 11 8 4 2
25 25 22 19 17 16 14 13 14 14 13 13 15 14 11 9 7 4 2 2 2 3 4 5 5 5 5 5 5 5 5 5 5 5 5 6 6 7 8 8 6 3 2
30 29 25 21 19 19 17 16 17 17 16 16 16 13 10 9 6 3 2 3 3 3 4 6 6 6 6 6 5 4 4 5 5 4 3 3 4 4 6 6 5 4 3
34 32 27 23 22 21 19 17 17 16 15 14 13 11 9 7 5 2 2 4 4 4 5 6 6 5 5 5 4 3 4 5 4 3 2 1 2 4 6 6 5 4 3
36 33 28 25 24 22 20 19 18 16 14 13 11 9 7 4 2 1 2 5 6 6 7 8 7 5 4 4 4 3 3 3 3 3 2 1 2 4 5 5 5 4 4
36 34 30 27 26 25 22 21 21 18 15 13 12 9 7 3 1 0 1 4 7 7 7 8 8 6 4 4 4 4 3 2 2 2 3 2 2 4 5 5 5 6 6
36 34 31 28 27 26 24 23 22 20 16 14 13 10 7 4 1 0 1 3 6 7 6 7 7 6 5 4 4 4 3 2 2 1 2 2 2 2 3 4 5 6 6
34 34 31 28 26 25 24 24 22 20 17 14 12 11 9 6 2 0 0 2 5 6 6 6 5 4 4 3 3 4 3 3 2 1 1 1 1 1 1 3 4 5 5
36 35 32 28 25 24 22 21 20 18 15 12 11 11 11 8 4 1 0 2 5 7 6 5 3 2 2 2 3 3 3 3 2 1 1 0 0 0 0 1 2 3 2
40 37 32 27 23 20 20 19 17 15 13 12 11 11 12 9 5 2 1 2 5 7 6 4 2 1 1 1 1 2 3 3 3 3 2 1 1 0 0 0 1 1 0
38 33 27 23 19 17 17 16 16 14 14 14 13 11 10 8 5 3 1 1 3 4 5 4 2 1 0 0 0 1 2 2 3 3 3 2 1 0 0 0 0 0 0
30 26 22 20 18 16 15 14 14 14 14 14 13 10 8 6 5 3 1 0 1 1 2 2 1 0 0 0 0 0 0 1 2 3 3 2 1 0 0 0 0 0 0
24 22 19 18 17 16 13 12 12 11 11 12 13 11 8 5 4 3 1 1 1 1 1 1 1 1 0 0 0 0 0 1 2 2 2 1 0 0 0 0 0 0 0
22 20 18 16 14 13 11 9 8 7 7 9 11 10 7 4 2 1 1 2 2 2 2 2 2 2 1 0 0 0 0 0 1 1 1 0 0 0 0 0 0 0 0
19 17 14 13 11 10 9 7 4 3 2 3 4 5 4 2 0 0 1 1 1 1 1 3 3 3 2 1 1 0 0 0 0 0 0 0 0 0 0 0 0 0 0
15 13 11 10 9 8 8 8 5 3 1 0 0 0 1 0 0 0 0 0 0 0 1 2 2 2 2 2 1 0 0 0 0 0 0 0 0 0 0 0 0 0 0
13 11 10 10 9 8 8 9 8 6 4 1 0 0 0 0 0 0 0 0 0 0 0 1 1 1 1 1 1 0 0 0 0 0 0 0 0 0 0 0 0 0 0
11 10 9 9 9 8 9 9 9 9 6 2 1 0 0 0 0 0 0 0 0 0 0 0 0 0 0 0 0 0 0 0 0 0 0 0 0 0 0 0 0 0 0
10 9 8 8 7 8 8 8 8 7 6 4 2 0 0 0 0 0 0 0 0 0 0 0 0 0 0 0 0 0 0 0 0 0 0 0 0 0 0 0 0 0 0
7 7 7 7 6 7 7 6 6 6 6 5 2 0 0 0 0 0 0 0 0 0 0 0 0 0 0 0 0 0 0 0 0 0 0 0 0 0 0 0 0 0 0
5 5 6 6 6 6 6 6 6 6 6 4 1 0 0 0 0 0 0 0 0 0 0 0 0 0 0 0 0 0 0 0 0 0 0 0 0 0 0 0 0 0 0
2 2 3 5 6 5 6 6 5 5 5 3 1 0 0 0 0 0 0 0 0 0 0 0 0 0 0 0 0 0 0 0 0 0 0 0 0 0 0 0 0 0 0
0 0 2 4 4 4 4 4 3 3 3 1 0 0 0 0 0 0 0 0 0 0 0 0 0 0 0 0 0 0 0 0 0 0 0 0 0 0 0 0 0 0 0
0 0 1 2 2 2 1 1 1 1 1 0 0 0 0 0 0 0 0 0 0 0 0 0 0 0 0 0 0 0 0 0 0 0 0 0 0 0 0 0 0 0 0
0 0 1 1 1 0 0 0 0 0 0 0 0 0 0 0 0 0 0 0 0 0 0 0 0 0 0 0 0 0 0 0 0 0 0 0 0 0 0 0 0 0 0

GEFSGL_con_probscp_168.txt.gz
Probability
4 5 7 7 5 3 3 3 3 3 3 3 3 1 0 0 0 0 0 0 0 0 0 0 0 0 0 0 0 0 0 0 0 0 0 0 0 0 0 0 0 0 0
6 5 5 5 4 4 3 3 3 3 3 3 3 2 1 1 0 0 0 0 0 0 0 0 0 0 0 0 0 0 0 0 0 0 0 0 0 0 0 0 0 0 0
8 6 4 3 4 5 4 3 2 2 2 3 3 3 3 2 1 0 0 0 0 0 0 0 0 0 0 0 0 0 0 0 0 0 0 0 0 0 0 0 0 0 0
7 6 4 4 5 5 5 3 1 1 1 1 2 2 3 3 2 2 2 1 0 0 0 0 0 0 0 0 0 0 0 0 0 0 0 0 0 0 0 1 1 0 0
7 7 5 5 4 5 5 4 3 1 0 0 1 1 1 2 2 2 2 2 1 0 0 0 0 0 0 0 0 0 0 0 0 0 0 0 0 0 0 1 1 0 0
9 7 6 6 5 4 5 6 5 3 1 1 0 0 0 1 1 1 1 1 1 0 0 0 0 0 0 0 0 0 0 0 0 0 0 0 0 0 0 1 1 0 0
9 8 6 6 5 4 5 6 6 4 3 2 1 1 1 0 0 0 0 0 0 0 0 0 0 0 0 0 0 0 0 0 0 0 0 0 0 0 0 0 0 0 0
10 8 7 7 5 4 5 6 6 5 4 4 3 3 2 1 0 0 0 0 0 0 0 0 0 0 0 0 0 0 0 0 0 0 0 0 0 0 0 0 0 0 0
11 9 8 7 5 5 7 7 7 6 6 6 6 5 4 2 1 0 0 0 0 0 0 0 0 0 0 0 0 0 0 0 0 0 0 0 0 0 0 0 0 0 0
8 8 8 7 6 7 8 8 8 7 7 7 7 6 5 4 2 1 0 0 0 0 0 0 0 0 0 0 0 0 0 0 0 0 0 0 0 0 0 0 0 0 0
7 8 8 8 7 7 7 7 7 8 9 9 8 7 6 4 2 1 0 0 0 0 0 0 0 0 0 0 0 0 0 0 0 0 0 0 0 0 0 0 0 0 0
9 9 9 8 7 6 6 6 7 7 8 9 8 6 5 4 2 1 0 0 0 0 0 0 0 0 0 0 0 0 0 0 0 0 0 0 0 0 0 0 0 0 0
9 9 9 8 7 6 6 6 6 7 7 7 6 5 4 3 1 0 0 0 0 0 0 0 0 0 0 0 0 0 0 0 0 0 0 0 0 0 0 0 0 0 0
7 7 7 7 6 6 6 6 6 6 6 6 6 5 5 3 1 0 0 0 0 0 0 0 0 0 0 0 0 0 0 0 0 0 0 0 0 0 0 0 0 0 0
6 6 5 6 6 6 5 5 5 5 4 4 5 5 5 3 1 0 0 0 0 0 0 0 0 0 0 0 0 0 0 0 0 0 0 0 0 0 0 0 0 0 0
6 6 5 5 6 5 4 4 4 4 3 3 4 4 4 3 2 0 0 0 0 0 0 0 0 0 0 0 0 0 0 0 0 0 0 0 0 0 0 0 0 0 0
6 6 6 6 6 5 3 3 3 3 2 1 2 2 2 2 1 0 0 0 0 0 0 0 0 0 0 0 0 0 0 0 0 0 0 0 0 0 0 0 0 0 0
6 6 6 6 6 4 3 3 3 3 2 1 1 1 1 1 0 0 0 0 0 0 0 0 0 0 0 0 0 0 0 0 0 0 0 0 0 0 0 0 0 0 0
5 6 6 5 4 3 2 2 3 3 3 2 1 0 0 0 0 0 0 0 0 0 0 0 0 0 0 0 0 0 0 0 0 0 0 0 0 0 0 0 0 0 0
3 4 4 2 1 1 1 1 3 3 3 2 1 0 0 0 0 0 0 0 0 0 0 0 0 0 0 0 0 0 0 0 0 0 0 0 0 0 0 0 0 0 0
1 1 1 0 0 0 0 1 2 3 3 2 1 0 0 0 0 0 0 0 0 0 0 0 0 0 0 0 0 0 0 0 0 0 0 0 0 0 0 0 0 0 0
0 0 0 0 0 0 0 0 1 1 2 2 1 0 0 0 0 0 0 0 0 0 0 0 0 0 0 0 0 0 0 0 0 0 0 0 0 0 0 0 0 0 0
0 0 0 0 0 0 0 0 0 0 1 1 0 0 0 0 0 0 0 0 0 0 0 0 0 0 0 0 0 0 0 0 0 0 0 0 0 0 0 0 0 0 0
0 0 0 0 0 0 0 0 0 0 0 0 0 0 0 0 0 0 0 0 0 0 0 0 0 0 0 0 0 0 0 0 0 0 0 0 0 0 0 0 0 0 0
0 0 0 0 0 0 0 0 0 0 0 0 0 0 0 0 0 0 0 0 0 0 0 0 0 0 0 0 0 0 0 0 0 0 0 0 0 0 0 0 0 0 0
0 0 0 0 0 0 0 0 0 0 0 0 0 0 0 0 0 0 0 0 0 0 0 0 0 0 0 0 0 0 0 0 0 0 0 0 0 0 0 0 0 0 0

GEFSGL_con_probscp_174.txt.gz
Probability
1 1 0 0 0 0 1 2 3 3 3 3 3 3 3 3 2 3 3 3 3 1 0 0 0 0 0 0 0 0 0 0 0 0 0 0 0 0 0 0 0 0 0
2 1 0 0 0 0 0 1 2 2 2 2 2 2 2 2 2 2 2 3 3 2 1 0 0 0 0 0 0 0 0 0 0 0 0 0 0 0 0 0 0 0 0
1 1 0 0 0 0 0 0 1 1 1 1 0 1 1 1 1 1 1 1 2 3 2 1 0 0 0 0 0 0 0 0 0 0 0 0 0 0 0 0 0 0 0
2 1 0 0 0 0 0 0 0 0 0 0 0 0 0 0 0 0 0 0 1 2 3 2 1 0 0 0 0 0 0 0 0 0 0 0 0 0 0 0 0 0 0
3 2 1 0 0 0 0 0 0 0 0 0 0 0 0 0 0 0 0 0 0 1 2 2 1 0 0 0 0 0 0 0 0 0 0 0 0 0 0 0 0 0 0
4 3 2 1 0 0 0 0 1 1 0 0 0 1 1 1 1 0 0 0 0 0 1 2 2 1 0 0 0 0 0 0 0 0 0 0 0 0 0 0 0 0 0
5 5 3 1 1 1 1 1 2 3 2 1 1 2 2 2 2 1 0 0 0 0 0 1 1 1 0 0 0 0 0 0 0 0 0 0 0 0 0 0 0 0 0
6 5 3 2 2 2 2 3 3 4 4 3 3 4 4 3 3 1 0 0 0 0 0 0 0 0 0 0 0 0 0 0 0 0 0 0 0 0 0 0 0 0 0
5 5 4 3 3 3 3 3 3 4 4 5 5 5 4 4 3 2 1 1 1 0 0 0 0 0 0 0 0 0 0 0 0 0 0 0 0 0 0 0 0 0 0
6 6 5 4 3 2 2 2 2 3 3 4 4 4 4 3 3 2 1 2 2 1 1 0 0 0 0 0 0 0 0 0 0 0 0 0 0 0 0 0 0 0 0
7 7 7 5 3 1 1 2 2 2 3 3 3 3 3 3 3 2 1 2 3 3 2 1 0 0 0 0 0 0 0 0 0 0 0 0 0 0 0 0 0 0 0
9 8 8 6 3 2 2 2 2 3 3 2 1 2 3 3 3 3 1 1 2 3 3 2 1 0 0 0 0 0 0 0 0 0 0 0 0 0 0 0 0 0 0
9 8 7 6 4 3 3 3 3 3 3 2 1 2 3 3 3 3 2 1 1 2 2 2 1 0 0 0 0 0 0 0 0 0 0 0 0 0 0 0 0 0 0
7 7 7 6 4 3 3 3 3 3 3 2 2 2 3 3 3 3 2 2 1 1 1 1 0 0 0 0 0 0 0 0 0 0 0 0 0 0 0 0 0 0 0
6 7 6 5 4 3 3 3 2 2 1 1 1 2 2 2 2 1 1 2 2 2 2 1 0 0 0 0 0 0 0 0 0 0 0 0 0 0 0 0 0 0 0
5 6 6 4 3 3 3 2 1 1 0 0 0 1 1 1 1 0 0 1 2 2 2 2 1 0 0 0 0 0 0 0 0 0 0 0 0 0 0 0 0 0 0
6 6 6 4 3 3 3 2 1 0 0 0 0 0 0 0 0 0 0 0 1 1 2 3 2 1 0 0 0 0 0 0 0 0 0 0 0 0 0 0 0 0 0
7 7 5 3 2 2 2 2 1 0 0 0 0 0 0 0 0 0 0 0 0 1 2 3 2 1 0 0 0 0 0 0 0 0 0 0 0 0 0 0 0 0 0
6 6 4 2 2 1 1 1 0 0 0 0 0 0 0 0 0 0 0 0 0 1 3 3 2 1 0 0 0 0 0 0 0 0 0 0 0 0 0 0 0 0 0
3 3 2 2 1 0 0 0 0 0 0 0 0 0 0 0 0 0 0 0 0 1 2 2 1 0 0 0 0 0 0 0 0 0 0 0 0 0 0 0 0 0 0
1 1 1 1 0 0 0 0 0 0 0 0 0 0 0 0 0 0 0 0 0 1 1 1 0 0 0 0 0 0 0 0 0 0 0 0 0 0 0 0 0 0 0
0 0 0 0 0 0 0 0 0 0 0 0 0 0 0 0 0 0 0 0 0 0 0 0 0 0 0 0 0 0 0 0 0 0 0 0 0 0 0 0 0 0 0
0 0 0 0 0 0 0 0 0 0 0 0 0 0 0 0 0 0 0 0 0 0 0 0 0 0 0 0 0 0 0 0 0 0 0 0 0 0 0 0 0 0 0
0 0 0 0 0 0 0 0 0 0 0 0 0 0 0 0 0 0 0 0 0 0 0 0 0 0 0 0 0 0 0 0 0 0 0 0 0 0 0 0 0 0 0
0 0 0 0 0 0 0 0 0 0 0 0 0 0 0 0 0 0 0 0 0 0 0 0 0 0 0 0 0 0 0 0 0 0 0 0 0 0 0 0 0 0 0
0 0 0 0 0 0 0 0 0 0 0 0 0 0 0 0 0 0 0 0 0 0 0 0 0 0 0 0 0 0 0 0 0 0 0 0 0 0 0 0 0 0 0

GEFSGL_con_probscp_180.txt.gz
Probability
10 10 9 8 7 7 6 3 3 5 5 5 5 5 5 5 4 4 4 4 5 6 4 3 3 6 7 6 6 7 9 8 5 2 2 3 3 2 3 4 3 2 1
11 10 10 9 8 6 4 2 2 3 3 3 4 4 4 5 6 6 5 4 5 6 5 3 3 5 6 5 5 6 9 9 6 3 3 4 3 3 4 3 2 1 2
13 12 11 10 8 7 4 2 2 2 2 2 2 3 4 5 6 6 6 5 6 6 6 4 3 4 5 5 4 5 6 7 6 5 4 5 3 3 4 2 1 1 1
18 16 13 12 10 8 7 6 5 3 3 2 2 3 3 4 5 6 7 8 7 7 7 7 5 4 4 4 3 3 4 5 7 6 6 5 4 3 2 1 1 1 0
23 20 17 16 14 11 9 9 8 6 4 3 3 3 3 3 4 5 7 9 8 7 7 7 5 3 3 2 2 3 4 6 8 8 7 6 5 4 2 2 1 1 0
27 24 23 22 19 14 11 9 8 7 6 6 5 4 3 3 3 3 4 7 7 6 7 6 5 3 2 2 1 1 3 4 6 8 7 7 7 5 4 3 3 2 1
26 25 25 24 21 16 13 10 7 6 5 6 5 4 4 3 2 1 2 4 5 5 6 5 4 3 3 3 3 2 2 2 3 5 6 7 8 8 6 5 4 3 2
24 23 22 21 19 18 15 11 8 6 5 4 3 4 4 3 2 1 1 3 4 4 4 4 3 3 4 4 4 3 3 3 1 2 4 6 7 7 5 5 4 3 3
25 23 19 17 18 18 16 12 9 8 7 5 3 3 2 2 1 0 1 2 4 4 4 3 3 3 3 4 4 5 5 4 2 1 1 2 3 2 2 3 3 3 3
25 23 21 19 19 18 16 12 11 11 8 6 4 2 1 1 1 1 0 2 4 4 4 4 4 3 3 3 3 5 6 5 4 3 1 1 0 0 0 1 3 3 3
23 24 24 24 21 18 16 13 11 9 7 5 4 3 2 3 2 1 0 1 3 3 3 4 4 3 1 1 2 4 4 4 4 4 2 1 0 0 0 1 2 2 2
21 24 26 25 21 18 16 13 9 7 5 3 3 3 3 3 3 2 1 0 1 2 2 2 2 2 1 0 1 2 1 1 2 3 2 1 0 0 0 0 1 1 1
21 23 24 22 20 17 15 12 8 5 4 3 3 3 3 3 3 3 1 1 0 1 1 1 0 0 0 0 0 0 0 0 1 1 1 1 0 0 0 0 0 0 0
23 23 22 19 15 13 12 9 6 5 4 3 3 3 3 4 3 3 3 2 1 1 1 1 0 0 0 0 0 0 0 0 0 0 0 0 0 0 0 0 0 0 0
23 22 20 16 11 9 8 6 5 4 3 3 3 3 4 4 4 3 3 3 2 1 1 1 0 0 0 0 0 1 1 1 0 0 0 0 0 0 0 0 0 0 0
20 20 18 14 10 8 6 4 3 3 2 1 2 3 3 3 3 2 2 2 1 0 1 1 1 0 0 0 0 1 2 2 1 0 0 0 0 0 0 0 0 0 0
18 17 16 13 10 8 6 4 3 3 1 1 1 1 2 2 1 1 1 1 0 0 0 0 1 0 0 0 0 0 1 2 1 0 0 0 0 0 0 0 0 0 0
16 16 14 11 10 9 7 4 3 3 3 3 2 1 1 1 0 0 0 0 0 0 0 0 0 0 0 0 0 0 1 2 2 1 0 0 0 0 0 0 0 0 0
12 12 10 9 9 8 7 4 3 3 4 4 3 1 0 0 0 0 0 0 0 0 0 0 0 0 0 0 0 0 1 2 2 1 0 0 0 0 0 0 0 0 0
7 6 5 5 6 5 4 3 3 3 4 4 2 0 0 0 0 0 0 0 0 0 0 0 0 0 0 0 0 0 0 1 1 1 0 0 0 0 0 0 0 0 0
3 1 1 1 2 2 1 1 2 2 3 2 1 0 0 0 0 0 0 0 0 0 0 0 0 0 0 0 0 0 0 0 0 0 0 0 0 0 0 0 0 0 0
1 0 0 0 0 0 0 0 1 1 1 1 1 0 0 0 0 0 0 0 0 0 0 0 0 0 0 0 0 0 0 0 0 0 0 0 0 0 0 0 0 0 0
0 0 0 0 0 0 0 0 0 0 0 0 0 0 0 0 0 0 0 0 0 0 0 0 0 0 0 0 0 0 0 0 0 0 0 0 0 0 0 0 0 0 0
0 0 0 0 0 0 0 0 0 0 0 0 0 0 0 0 0 0 0 0 0 0 0 0 0 0 0 0 0 0 0 0 0 0 0 0 0 0 0 0 0 0 0
0 0 0 0 0 0 0 0 0 0 0 0 0 0 0 0 0 0 0 0 0 0 0 0 0 0 0 0 0 0 0 0 0 0 0 0 0 0 0 0 0 0 0
0 0 0 0 0 0 0 0 0 0 0 0 0 0 0 0 0 0 0 0 0 0 0 0 0 0 0 0 0 0 0 0 0 0 0 0 0 0 0 0 0 0 0

GEFSGL_con_probscp_186.txt.gz
Probability
39 37 32 28 27 25 22 19 19 19 19 19 18 16 15 16 17 19 19 17 15 14 13 12 10 8 8 9 8 9 12 11 7 6 9 11 13 13 11 11 9 4 2
41 40 36 32 30 28 24 20 19 19 19 19 19 17 15 14 15 17 16 16 16 17 16 13 10 9 11 12 11 11 12 11 8 7 9 11 12 14 13 11 8 4 2
42 41 39 35 32 30 27 22 19 18 17 17 17 15 14 13 14 14 14 14 15 16 16 14 12 12 13 14 13 12 12 10 9 8 9 9 11 13 14 11 7 4 3
43 41 39 37 33 31 30 28 23 20 18 17 14 12 12 13 13 13 12 12 13 13 14 14 12 12 12 13 12 12 11 10 8 8 8 8 8 9 9 8 6 4 3
44 42 40 39 36 35 36 35 31 26 23 19 14 11 12 11 9 8 8 8 10 11 12 12 10 8 8 8 8 9 9 8 7 7 8 8 7 6 6 5 4 3 2
45 42 42 42 40 40 40 37 33 29 25 20 15 12 11 7 4 3 4 6 8 10 11 10 7 5 5 5 5 5 5 6 6 7 8 8 7 6 5 4 3 1 1
45 44 43 43 42 42 41 36 32 29 26 23 19 15 10 5 1 0 2 4 6 7 7 7 5 3 4 5 4 4 4 4 5 5 7 8 8 7 5 4 2 1 0
45 45 44 44 43 42 42 40 36 31 28 26 23 17 11 5 1 0 1 3 4 4 4 4 3 2 3 4 5 5 5 5 4 4 5 6 7 6 5 3 2 0 0
43 45 44 43 42 42 43 43 40 35 30 26 23 18 12 7 3 1 1 2 3 3 3 3 3 3 3 3 4 4 5 5 5 4 3 4 4 3 2 3 2 1 0
41 43 44 43 42 41 42 42 39 35 29 24 21 17 13 8 4 2 1 2 3 3 3 3 3 3 2 2 2 3 4 4 4 4 3 2 2 1 1 3 3 1 0
42 41 41 41 39 38 38 38 36 32 27 22 19 15 11 7 4 2 1 2 3 3 3 3 3 3 1 1 1 2 2 3 3 4 3 3 2 2 3 3 3 2 1
43 40 36 35 34 34 35 35 33 30 25 21 16 12 8 5 3 3 1 1 2 3 3 3 3 3 1 0 0 1 1 1 2 3 3 3 2 2 3 3 3 3 2
42 38 34 30 29 30 31 30 28 26 22 17 13 9 6 4 3 3 2 1 1 2 3 3 3 2 1 0 0 0 0 0 1 1 2 2 2 2 3 3 3 3 2
40 37 33 30 27 26 26 23 21 20 17 12 9 6 4 3 3 3 2 2 1 2 3 3 3 2 1 1 1 0 0 0 0 0 1 1 1 1 2 3 3 3 2
36 34 32 30 27 23 20 17 14 12 10 7 5 4 3 3 2 1 1 2 2 2 2 3 3 3 2 2 2 1 0 0 0 0 0 0 0 0 1 1 3 3 3
33 32 31 29 27 21 16 13 9 7 5 3 2 1 2 2 1 0 0 1 1 1 1 3 3 3 3 3 2 1 0 0 0 0 0 0 0 0 0 1 2 3 3
29 28 26 25 23 18 14 11 7 4 3 2 1 0 1 1 0 0 0 0 0 0 1 2 3 3 3 3 3 1 0 0 0 0 0 0 0 0 0 1 1 2 2
22 20 18 19 18 15 12 10 7 4 4 3 2 0 0 0 0 0 0 0 0 0 0 1 1 2 2 2 2 1 0 0 0 0 0 0 0 0 0 0 0 0 1
16 14 13 15 16 14 11 9 6 4 4 3 1 0 0 0 0 0 0 0 0 0 0 0 0 1 1 1 1 1 0 0 0 0 1 1 1 0 0 0 0 0 0
13 10 9 11 12 11 11 9 6 4 4 3 1 0 0 0 0 0 0 0 0 0 0 0 0 0 0 0 0 0 0 0 0 0 1 2 2 1 1 0 0 0 1
9 6 6 7 7 9 9 8 6 4 3 2 1 0 0 0 0 0 0 0 0 0 0 0 0 0 0 0 0 0 0 0 0 0 1 2 2 2 1 1 1 1 2
5 4 5 6 7 8 8 7 5 4 2 1 1 0 0 0 0 0 0 0 0 0 0 0 0 0 0 0 0 0 0 0 0 0 0 1 1 1 1 1 1 2 2
2 3 4 6 8 8 6 5 4 2 1 0 0 0 0 0 0 0 0 0 0 0 0 0 0 0 0 0 0 0 0 0 0 0 0 0 0 0 0 0 1 1 1
1 2 3 4 6 5 4 3 1 1 0 0 0 0 0 0 0 0 0 0 0 0 0 0 0 0 0 0 0 0 0 0 0 0 0 0 0 0 0 0 0 0 0
0 1 1 1 2 2 1 1 0 0 0 0 0 0 0 0 0 0 0 0 0 0 0 0 0 0 0 0 0 0 0 0 0 0 0 0 0 0 0 0 0 0 0
0 0 0 0 0 0 0 0 0 0 0 0 0 0 0 0 0 0 0 0 0 0 0 0 0 0 0 0 0 0 0 0 0 0 0 0 0 0 0 0 0 0 0

GEFSGL_con_probscp_192.txt.gz
Probability
21 18 16 16 13 9 6 4 4 4 4 5 4 2 0 0 0 0 0 0 0 0 0 1 1 2 3 3 3 2 2 1 0 0 0 0 0 0 0 0 0 0 0
19 16 14 14 12 9 7 6 5 4 4 5 4 2 1 1 1 1 1 1 1 1 1 2 2 3 3 3 2 1 1 0 1 1 0 1 1 0 0 0 0 0 0
20 16 14 14 13 10 9 8 7 5 4 4 3 2 2 2 2 3 3 3 2 2 3 3 3 3 2 1 1 0 0 1 2 2 2 2 2 1 0 0 0 0 0
22 19 16 15 13 12 11 9 7 6 4 4 4 3 3 3 3 4 4 4 3 3 3 3 3 2 1 0 0 0 0 1 2 3 3 3 3 1 1 1 1 1 0
23 21 19 17 14 13 11 10 9 7 6 5 4 3 3 3 3 3 4 3 3 3 3 2 1 1 0 0 0 0 0 0 1 2 2 3 3 3 2 2 2 1 1
23 20 18 17 14 11 10 9 9 8 7 6 4 3 3 3 3 3 2 2 2 2 1 1 0 0 0 0 0 0 0 0 0 1 1 1 2 2 2 2 2 1 0
23 20 17 15 13 10 8 7 7 6 6 7 6 4 3 3 3 2 1 1 1 1 0 0 0 0 0 0 0 0 0 0 0 0 0 0 1 1 1 0 1 1 0
22 20 17 15 13 11 9 8 7 6 6 7 6 4 3 3 3 2 1 0 0 0 0 0 0 0 0 0 0 0 0 0 0 0 0 0 0 0 0 0 0 1 1
23 21 18 16 15 13 11 10 9 9 8 7 6 6 5 4 4 3 1 0 0 0 1 1 0 0 0 0 0 0 1 1 1 1 0 0 0 0 0 0 0 0 0
27 24 18 16 15 13 12 11 11 11 9 6 6 7 6 6 5 3 1 0 1 1 2 2 1 1 0 0 0 0 1 2 2 2 1 1 0 0 0 0 0 0 0
27 24 19 15 14 13 12 11 10 9 8 6 6 6 6 6 5 3 1 0 1 2 2 3 2 1 0 0 0 0 1 1 2 2 2 2 1 1 0 0 0 0 0
22 20 18 17 16 15 13 11 8 7 7 6 5 4 3 3 3 2 0 0 1 2 2 2 2 1 0 0 0 0 0 0 1 1 1 2 3 2 1 0 0 0 0
19 17 16 17 17 16 14 11 7 5 6 6 4 2 1 1 2 1 0 0 0 1 1 1 1 0 0 0 0 0 0 0 0 0 1 2 3 3 2 1 0 0 0
16 15 14 15 15 13 11 9 7 6 6 6 4 2 1 0 0 0 0 0 0 0 0 0 0 0 0 0 0 0 0 0 0 0 0 1 2 2 2 2 1 0 0
14 14 13 12 10 8 7 6 6 6 5 4 3 2 1 0 0 0 0 0 0 0 0 0 0 0 0 0 0 0 0 0 0 0 0 0 1 1 2 2 1 0 0
12 12 11 9 7 4 4 3 3 2 2 1 1 1 0 0 0 0 0 0 0 0 0 0 0 0 0 0 0 0 0 0 0 0 0 0 0 1 2 2 1 0 0
11 10 9 7 5 3 3 2 1 0 0 0 0 0 0 0 0 0 0 0 0 0 0 0 0 0 0 0 0 0 0 0 0 0 0 0 0 1 1 1 0 0 0
9 9 7 6 4 3 2 1 0 0 0 0 0 0 0 0 0 0 0 0 0 0 0 0 0 0 0 0 0 0 0 0 0 0 0 0 0 0 0 0 0 0 0
7 7 6 6 4 3 2 1 0 0 0 0 0 0 0 0 0 0 0 0 0 0 0 0 0 0 0 0 0 0 0 0 0 0 0 0 0 0 0 0 0 0 0
4 4 4 4 4 3 3 2 1 0 0 0 0 0 0 0 0 0 0 0 0 0 0 0 0 0 0 0 0 0 0 0 0 0 0 0 0 0 0 0 0 0 0
1 1 1 2 2 3 3 3 2 0 0 0 0 0 0 0 0 0 0 0 0 0 0 0 0 0 0 0 0 0 0 0 0 0 0 0 0 0 0 0 0 0 0
0 0 0 0 1 2 2 2 1 0 0 0 0 0 0 0 0 0 0 0 0 0 0 0 0 0 0 0 0 0 0 0 0 0 0 0 0 0 0 0 0 0 0
0 0 0 0 0 1 1 1 0 0 0 0 0 0 0 0 0 0 0 0 0 0 0 0 0 0 0 0 0 0 0 0 0 0 0 0 0 0 0 0 0 0 0
0 0 0 0 0 0 0 0 0 0 0 0 0 0 0 0 0 0 0 0 0 0 0 0 0 0 0 0 0 0 0 0 0 0 0 0 0 0 0 0 0 0 0
0 0 0 0 0 0 0 0 0 0 0 0 0 0 0 0 0 0 0 0 0 0 0 0 0 0 0 0 0 0 0 0 0 0 0 0 0 0 0 0 0 0 0
0 0 0 0 0 0 0 0 0 0 0 0 0 0 0 0 0 0 0 0 0 0 0 0 0 0 0 0 0 0 0 0 0 0 0 0 0 0 0 0 0 0 0

GEFSGL_con_probscp_198.txt.gz
Probability
9 9 10 9 6 4 3 1 0 0 0 0 0 0 0 0 0 0 0 0 0 0 0 0 0 0 0 0 0 0 0 0 0 0 0 0 0 1 1 1 0 0 0
8 8 9 8 7 5 3 1 1 1 1 0 0 0 0 0 0 0 0 0 0 0 0 0 0 0 0 0 0 0 0 0 0 0 0 0 0 1 2 1 0 0 0
8 8 8 7 6 5 3 3 2 2 2 1 0 0 0 0 0 0 0 0 0 0 0 0 0 0 0 0 0 0 0 0 0 0 0 0 0 1 1 1 0 0 0
10 8 7 6 4 2 2 3 3 3 2 1 0 0 0 0 0 0 0 0 0 0 0 0 0 0 0 0 0 0 0 0 0 0 0 0 0 0 0 0 0 0 0
12 10 7 5 2 1 1 2 2 2 1 0 0 0 0 0 0 0 0 0 0 0 0 0 0 0 0 0 0 0 0 0 0 0 0 0 0 0 0 0 0 0 0
13 11 7 4 3 2 2 2 2 2 1 0 0 0 0 0 0 0 0 0 0 0 0 0 0 0 0 0 0 0 0 0 0 0 0 0 0 0 0 0 0 0 0
14 12 8 5 4 4 3 3 4 3 1 0 0 1 1 1 0 0 0 0 0 0 0 0 0 0 0 0 0 0 0 0 0 1 1 1 0 0 0 0 0 0 0
14 13 10 6 4 3 3 3 4 3 1 1 1 2 3 2 1 0 0 0 0 1 1 0 0 0 0 0 0 0 0 0 0 1 1 1 0 0 0 0 0 0 0
13 13 12 9 6 3 1 1 1 1 1 1 2 3 4 3 1 0 0 0 1 2 2 1 1 0 0 0 0 0 0 0 0 1 1 1 0 0 0 0 0 0 0
13 13 12 10 7 4 2 1 1 1 1 1 3 3 4 3 1 0 0 0 1 1 1 1 1 0 0 0 0 0 0 0 0 1 0 0 0 0 0 0 0 0 0
16 14 10 7 5 4 4 4 4 3 3 3 3 3 3 2 1 0 0 0 0 0 0 1 1 0 0 0 0 0 0 0 0 0 0 0 0 0 0 0 0 0 0
15 11 7 4 4 5 6 6 6 5 4 3 3 3 2 1 0 0 0 0 0 0 0 0 0 0 0 0 0 0 0 0 0 0 0 0 0 0 0 1 0 0 0
12 9 6 5 6 7 8 9 8 6 4 3 3 2 1 0 0 0 0 0 0 0 0 0 0 0 0 0 0 0 0 0 0 0 0 0 0 0 0 0 0 0 0
10 8 7 6 8 9 9 10 9 7 4 4 4 2 1 0 0 0 0 0 0 0 0 0 0 0 0 0 0 0 0 0 0 0 0 0 0 0 0 0 0 0 0
8 8 8 9 9 8 7 7 6 4 3 4 4 2 1 0 0 0 0 0 0 0 0 0 0 0 0 0 0 0 0 0 0 0 0 0 0 0 0 0 0 0 0
6 7 9 10 9 7 4 2 1 1 1 1 1 1 0 0 0 0 0 0 0 0 0 0 0 0 0 0 0 0 0 0 0 0 0 0 0 0 0 0 0 0 0
6 7 8 9 8 5 2 0 0 0 0 0 0 0 0 0 0 0 0 0 0 0 0 0 0 0 0 0 0 0 0 0 0 0 0 0 0 0 0 0 0 0 0
6 6 6 6 5 3 1 0 0 0 0 0 0 0 0 0 0 0 0 0 0 0 0 0 0 0 0 0 0 0 0 0 0 0 0 0 0 0 0 0 0 0 0
6 6 5 4 3 1 0 0 0 0 0 0 0 0 0 0 0 0 0 0 0 0 0 0 0 0 0 0 0 0 0 0 0 0 0 0 0 0 0 0 0 0 0
4 3 3 1 1 0 0 0 0 0 0 0 0 0 0 0 0 0 0 0 0 0 0 0 0 0 0 0 0 0 0 0 0 0 0 0 0 0 0 0 0 0 0
2 1 1 0 0 0 0 0 0 1 1 0 0 0 0 0 0 0 0 0 0 0 0 0 0 0 0 0 0 0 0 0 0 0 0 0 0 0 0 0 0 0 0
1 0 0 0 0 0 0 0 0 1 1 0 0 0 0 0 0 0 0 0 0 0 0 0 0 0 0 0 0 0 0 0 0 0 0 0 0 0 0 0 0 0 0
0 0 0 0 0 0 0 0 0 1 1 0 0 0 0 0 0 0 0 0 0 0 0 0 0 0 0 0 0 0 0 0 0 0 0 0 0 0 0 0 0 0 0
0 0 0 0 0 0 0 0 0 0 0 0 0 0 0 0 0 0 0 0 0 0 0 0 0 0 0 0 0 0 0 0 0 0 0 0 0 0 0 0 0 0 0
0 0 0 0 0 0 0 0 0 0 0 0 0 0 0 0 0 0 0 0 0 0 0 0 0 0 0 0 0 0 0 0 0 0 0 0 0 0 0 0 0 0 0
0 0 0 0 0 0 0 0 0 0 0 0 0 0 0 0 0 0 0 0 0 0 0 0 0 0 0 0 0 0 0 0 0 0 0 0 0 0 0 0 0 0 0

GEFSGL_con_probscp_204.txt.gz
Probability
21 21 19 18 19 20 21 18 14 13 14 13 10 9 10 11 10 9 8 5 2 3 5 6 7 8 10 11 13 15 16 15 13 11 8 7 9 9 8 6 5 5 6
21 20 19 18 19 21 21 16 12 12 13 12 11 10 11 11 11 9 7 4 3 5 5 6 7 10 11 12 14 14 14 14 14 14 13 11 10 9 8 7 5 4 4
23 22 20 21 22 22 20 15 12 11 11 11 10 10 10 10 10 8 6 4 4 5 5 6 8 12 13 13 12 11 10 11 13 14 14 13 11 10 9 7 6 5 4
25 24 24 24 25 23 18 15 14 13 12 10 9 9 10 9 8 6 4 4 5 7 6 6 8 11 12 11 9 9 9 9 10 10 11 11 11 10 9 9 8 7 6
25 25 25 24 23 21 17 16 16 15 14 13 11 10 9 8 5 2 1 3 6 8 8 7 8 9 9 7 5 6 8 8 8 8 8 9 9 9 9 9 8 7 6
25 26 25 23 21 20 19 19 18 17 17 16 13 9 7 5 2 1 1 2 4 7 9 10 9 8 7 4 2 2 4 7 8 7 6 5 6 7 8 7 6 5 4
29 29 27 24 23 23 23 22 20 19 20 18 13 10 7 4 2 1 0 1 2 5 8 11 11 9 8 5 3 2 2 3 5 5 5 4 4 4 5 4 4 3 3
33 31 28 27 27 27 26 25 23 23 23 21 16 12 9 5 2 1 0 1 3 5 7 11 12 11 8 6 5 4 3 2 3 3 3 3 3 2 3 3 3 3 3
35 32 28 26 26 26 28 28 27 25 24 22 17 13 9 5 1 0 1 3 5 6 8 9 10 8 6 3 3 4 4 3 2 1 1 1 1 1 1 2 3 3 3
34 31 28 27 25 25 27 29 28 25 23 19 15 12 8 4 1 0 1 4 6 8 9 8 7 4 2 1 1 2 3 2 1 0 0 0 1 2 1 2 3 3 2
34 31 29 30 29 26 26 27 25 22 20 17 14 12 8 3 1 1 1 3 6 8 9 7 5 3 1 0 0 1 2 1 0 0 0 0 1 2 2 2 2 2 1
34 33 33 34 32 28 26 26 23 21 19 17 16 13 8 4 3 2 1 1 3 5 6 5 3 1 0 0 0 0 0 0 0 0 0 0 1 1 1 1 1 1 0
34 35 35 33 30 27 26 24 21 19 18 16 16 13 9 6 5 3 1 1 1 2 3 2 1 0 0 0 0 0 0 0 0 0 0 0 0 0 0 0 0 0 0
34 34 32 27 24 23 22 18 16 15 14 14 13 11 8 6 6 4 3 2 2 2 2 1 0 0 0 0 0 0 0 0 0 0 0 0 0 0 0 0 0 0 0
31 31 27 20 17 17 15 12 11 10 10 10 11 9 7 6 4 3 2 2 2 2 2 1 0 0 0 0 0 0 0 0 0 0 0 0 0 0 0 0 0 0 0
29 28 23 16 13 13 12 10 9 8 6 6 7 7 5 3 2 1 1 1 1 1 1 1 0 0 0 0 0 0 0 0 0 0 0 0 0 0 0 0 0 0 0
27 24 18 13 12 12 11 10 9 7 4 3 3 2 2 1 1 0 0 0 0 0 0 0 0 0 0 0 0 0 0 0 0 0 0 0 0 0 0 0 0 0 0
23 19 13 12 14 14 12 11 10 8 5 3 1 0 0 0 0 0 0 0 0 0 0 0 0 0 0 0 0 0 0 0 0 0 0 0 0 0 0 0 0 0 0
17 14 11 12 14 14 12 11 9 8 6 4 2 1 0 0 0 0 0 0 0 0 0 0 0 0 0 0 0 0 0 0 0 0 0 0 0 0 0 0 0 0 0
13 11 10 10 11 11 10 9 7 6 4 3 3 2 1 0 0 0 0 0 0 0 0 0 0 0 0 0 0 0 0 0 0 0 0 0 0 0 0 0 0 0 0
10 8 8 9 9 8 6 5 4 4 3 3 3 2 1 0 0 0 0 0 0 0 0 0 0 0 0 0 0 0 0 0 0 0 0 0 0 0 0 0 0 0 0
7 7 6 6 6 4 4 3 3 2 2 2 2 2 1 0 0 0 0 0 0 0 0 0 0 0 0 0 0 0 0 0 0 0 0 0 0 0 0 0 0 0 0
6 5 5 4 3 2 2 2 1 1 1 1 1 1 0 0 0 0 0 0 0 0 0 0 0 0 0 0 0 0 0 0 0 0 0 0 0 0 0 0 0 0 0
5 4 2 1 1 0 1 1 0 0 0 0 0 0 0 0 0 0 0 0 0 0 0 0 0 0 0 0 0 0 0 0 0 0 0 0 0 0 0 0 0 0 0
6 4 1 0 0 0 0 0 0 0 0 0 0 0 0 0 0 0 0 0 0 0 0 0 0 0 0 0 0 0 0 0 0 0 0 0 0 0 0 0 0 0 0
6 5 2 0 0 0 0 0 0 0 0 0 0 0 0 0 0 0 0 0 0 0 0 0 0 0 0 0 0 0 0 0 0 0 0 0 0 0 0 0 0 0 0

GEFSGL_con_probscp_210.txt.gz
Probability
39 40 39 36 33 33 34 32 29 26 23 20 17 16 14 11 11 11 11 12 14 13 14 14 11 8 7 7 7 8 10 9 9 11 11 9 9 10 9 10 10 7 5
44 44 42 38 34 33 32 31 30 26 23 20 17 16 15 13 13 13 12 12 12 12 13 13 11 7 7 9 8 7 7 8 8 10 10 9 9 9 9 9 9 7 6
48 48 45 41 37 35 32 31 30 26 22 19 18 18 17 16 15 15 14 12 11 11 11 11 10 8 8 10 9 7 6 6 8 10 10 9 9 8 7 6 7 7 6
46 47 45 42 39 37 33 29 26 24 21 19 21 22 21 18 16 14 14 13 12 11 10 9 8 8 8 9 8 7 7 7 8 10 11 10 8 7 5 3 4 5 5
43 44 45 43 40 37 34 29 27 25 24 24 25 25 22 17 13 11 11 11 11 10 9 8 7 6 6 6 5 5 6 9 10 11 11 10 8 6 4 2 1 2 3
43 44 45 44 41 37 35 33 32 32 30 29 28 26 21 13 7 5 6 9 9 7 7 6 5 3 3 4 3 2 3 6 9 10 10 10 8 6 3 1 0 1 1
47 47 46 44 41 38 36 36 37 37 36 33 30 27 21 11 4 1 3 6 7 6 4 5 4 3 2 3 3 2 2 3 5 6 7 8 7 5 2 0 0 0 0
52 49 45 43 41 38 37 38 40 40 39 36 32 27 20 11 3 0 1 4 6 6 5 5 5 5 3 3 4 5 4 3 2 2 3 4 3 2 1 0 0 0 0
52 47 43 41 39 38 40 40 40 40 38 35 30 24 18 10 3 0 1 4 6 7 6 5 5 5 4 3 4 6 6 4 1 0 1 1 0 0 0 0 0 0 0
48 45 42 41 39 40 42 43 40 37 35 31 26 21 17 10 4 0 1 4 6 7 6 5 5 4 3 2 3 5 5 4 2 0 0 0 0 0 0 0 0 0 0
47 47 45 42 39 40 42 43 39 33 29 27 24 20 16 11 6 2 1 2 5 7 7 6 5 3 1 1 2 4 4 4 2 1 0 0 0 0 0 0 0 0 0
47 48 46 41 37 36 38 38 34 28 24 23 21 19 16 12 8 3 1 1 3 6 7 6 5 3 1 0 1 2 2 2 2 1 0 0 0 0 0 0 0 0 0
45 45 43 39 36 34 34 32 27 23 20 19 19 18 17 13 9 5 2 1 1 3 4 4 2 1 0 0 0 0 0 0 0 0 0 0 0 0 0 0 0 0 0
42 42 41 39 36 33 30 26 22 19 18 17 17 17 16 14 10 7 4 2 2 2 2 2 1 0 0 0 0 0 0 0 0 0 0 0 0 0 0 0 0 0 0
39 38 38 37 35 30 24 20 16 15 15 15 14 14 14 12 9 6 5 4 4 3 2 2 2 1 1 1 1 0 0 0 0 0 0 0 0 0 0 0 0 0 0
38 37 34 32 31 26 19 15 11 9 9 9 9 10 10 7 5 3 3 3 3 3 3 3 3 3 2 2 2 1 0 0 0 0 0 0 0 0 0 0 0 0 0
38 35 30 25 24 22 18 15 11 8 5 3 4 5 5 2 1 1 1 1 1 1 3 3 3 3 3 3 3 1 0 0 0 0 0 0 0 0 0 0 0 0 0
33 30 25 20 20 20 19 17 13 10 6 3 2 1 1 0 0 0 0 1 1 1 3 3 3 3 3 3 3 2 1 0 0 0 0 0 0 0 0 0 0 0 0
27 24 20 17 17 19 20 18 15 12 9 6 3 1 0 0 0 0 1 2 2 3 3 3 3 3 3 3 3 2 1 0 0 0 0 0 0 0 0 0 0 0 0
23 19 16 15 17 19 20 18 15 11 8 6 4 2 1 1 1 1 1 2 3 3 3 3 3 3 3 3 3 1 0 0 0 0 0 0 0 0 0 0 0 0 0
21 16 12 14 17 19 19 17 15 11 7 5 5 3 2 2 2 2 2 2 2 3 3 3 3 3 3 3 2 1 0 0 0 0 0 0 0 0 0 0 0 0 0
21 17 13 14 15 16 16 15 13 10 7 6 5 4 3 3 3 3 2 2 2 2 3 4 4 3 3 4 3 1 0 0 0 0 0 0 0 0 0 0 0 0 0
18 16 14 13 11 10 10 11 10 8 6 5 6 5 4 3 3 3 2 3 3 3 3 4 4 3 3 3 3 1 0 0 0 0 0 0 0 0 0 0 0 0 0
14 13 12 11 9 8 7 7 8 6 4 3 4 4 3 3 3 2 1 2 2 2 3 3 3 1 1 2 2 1 0 0 0 0 0 0 0 0 0 0 0 0 0
13 12 11 10 10 9 7 6 6 6 4 2 1 1 1 1 1 0 0 0 0 1 1 1 1 0 0 0 0 0 0 0 0 0 0 0 0 0 0 0 0 0 0
13 12 11 10 10 10 8 5 5 5 3 1 0 0 0 0 0 0 0 0 0 0 0 0 0 0 0 0 0 0 0 0 0 0 0 0 0 0 0 0 0 0 0

GEFSGL_con_probscp_216.txt.gz
Probability
12 13 13 12 10 9 9 8 7 6 6 6 5 5 5 4 2 1 0 0 0 0 0 0 0 0 0 0 0 0 0 0 0 0 0 0 0 0 0 0 0 0 0
14 15 14 13 12 11 10 9 8 7 7 6 5 5 5 3 1 0 0 0 0 0 0 0 0 0 0 0 0 0 0 0 0 0 0 0 0 0 0 0 0 0 0
17 18 17 15 13 12 10 9 9 8 7 6 5 5 4 3 1 0 0 0 0 0 0 0 0 0 0 0 0 0 0 0 0 0 0 0 0 0 0 0 0 0 0
18 19 17 15 12 10 9 9 9 9 8 7 5 4 3 3 2 1 0 0 0 0 0 0 0 0 0 0 0 0 0 0 0 0 0 0 0 0 0 0 0 0 0
19 18 16 12 10 8 8 8 8 9 9 8 6 4 4 3 2 1 0 0 0 0 0 0 0 0 0 0 0 0 0 0 0 0 0 0 0 0 0 0 0 0 0
18 16 13 11 9 9 9 8 8 8 8 8 6 5 4 3 1 0 0 0 0 0 0 0 0 0 0 0 0 0 0 0 0 0 0 0 0 0 0 0 0 0 0
15 13 11 10 10 10 11 11 9 8 9 9 8 6 4 1 0 0 0 0 0 0 0 0 0 0 0 0 0 0 0 0 0 0 0 0 0 0 0 0 0 0 0
15 13 11 10 11 12 13 14 13 11 11 11 9 7 4 1 0 0 0 0 0 0 0 0 0 0 0 0 0 0 0 0 0 0 0 0 0 0 0 0 0 0 0
17 16 13 12 14 15 15 16 15 14 13 12 9 7 5 2 1 0 0 0 0 0 0 0 0 0 0 0 0 0 0 0 0 0 0 0 0 0 0 0 0 0 0
22 20 18 17 17 16 15 15 14 14 13 11 9 7 5 3 2 1 0 0 0 0 0 0 0 0 0 0 0 0 1 1 0 0 0 0 0 0 0 0 0 0 0
30 26 22 19 16 14 12 12 11 12 12 11 9 7 4 3 3 1 0 0 0 0 0 0 0 0 0 0 0 0 1 1 0 0 0 0 0 0 0 0 0 0 0
32 28 23 19 15 12 10 9 9 9 11 11 9 6 4 3 3 2 1 0 0 0 0 0 0 0 0 0 0 0 1 1 0 0 0 0 0 0 0 0 0 0 0
27 24 21 19 17 13 10 7 7 8 10 10 8 5 3 3 3 3 1 0 0 0 0 0 0 0 0 0 0 0 0 0 0 0 0 0 0 0 0 0 0 0 0
22 21 21 21 21 16 10 7 6 7 8 9 7 5 4 4 4 3 2 1 0 0 0 0 0 0 0 0 0 0 0 0 0 0 0 0 0 0 0 0 0 0 0
21 21 22 22 21 17 11 7 6 5 5 5 6 6 6 5 5 3 2 2 1 0 0 0 0 0 0 0 0 0 0 0 0 0 0 0 0 0 0 0 0 0 0
22 22 22 22 20 16 10 7 5 3 2 2 3 5 6 5 4 2 1 1 1 0 0 1 1 1 1 0 0 0 0 0 0 0 0 0 0 0 0 0 0 0 0
22 22 21 19 18 14 9 6 6 4 2 1 1 2 3 3 1 1 0 0 0 0 1 2 2 2 2 1 0 0 0 0 0 0 0 0 0 0 0 0 0 0 0
19 18 17 15 14 11 8 6 6 6 5 4 2 0 1 1 0 0 0 0 0 1 2 3 3 3 3 2 1 0 0 0 0 0 0 0 0 0 0 0 0 0 0
12 12 12 10 9 8 7 6 6 6 6 6 3 1 0 0 0 0 0 1 1 2 3 3 3 3 3 2 1 0 0 0 0 0 0 0 0 0 0 0 0 0 0
6 6 6 6 6 6 7 7 7 6 6 6 5 3 1 0 0 0 0 1 2 3 3 3 3 3 2 1 0 0 0 0 0 0 0 0 0 0 0 0 0 0 0
4 4 3 4 5 6 6 7 7 6 6 6 6 4 2 1 0 0 0 0 1 3 3 3 2 1 1 0 0 0 0 0 0 0 0 0 0 0 0 0 0 0 0
6 6 5 5 6 6 6 7 7 6 6 6 5 3 1 1 1 0 0 0 1 2 3 2 1 0 0 0 0 0 0 0 0 0 0 0 0 0 0 0 0 0 0
7 8 8 7 8 8 7 7 6 6 6 6 4 3 1 1 1 1 1 0 1 1 1 1 0 0 0 0 0 0 0 0 0 0 0 0 0 0 0 0 0 0 0
7 9 9 9 9 9 9 8 7 7 6 5 4 3 2 1 1 2 1 0 0 0 0 0 0 0 0 0 0 0 0 0 0 0 0 0 0 0 0 0 0 0 0
6 8 10 10 10 10 9 8 8 8 6 4 3 3 1 0 1 1 1 0 0 0 0 0 0 0 0 0 0 0 0 0 0 0 0 0 0 0 0 0 0 0 0
5 8 10 10 9 9 8 8 8 8 6 4 3 2 1 0 0 0 0 0 0 0 0 0 0 0 0 0 0 0 0 0 0 0 0 0 0 0 0 0 0 0 0

GEFSGL_con_probscp_222.txt.gz
Probability
4 4 4 5 7 8 9 8 6 4 4 3 2 1 0 0 0 0 0 0 0 0 0 0 0 0 0 0 0 0 0 0 0 0 0 0 0 0 0 0 0 0 0
4 3 3 4 5 7 7 6 5 5 4 3 2 1 0 0 0 0 0 0 0 0 0 0 0 0 0 0 0 0 0 0 0 0 0 0 0 0 0 0 0 0 0
4 3 2 2 4 5 4 4 4 4 4 4 3 1 0 0 0 0 0 0 0 0 0 0 0 0 0 0 0 0 0 0 0 0 0 0 0 0 0 0 0 0 0
6 5 3 3 3 3 2 2 2 3 5 5 4 2 1 0 0 0 0 0 0 0 0 0 0 0 0 0 0 0 0 0 0 0 0 0 0 0 0 0 0 0 0
7 6 4 3 2 1 1 1 1 1 4 5 4 3 1 0 0 0 0 0 0 0 0 0 0 0 0 0 0 0 0 0 0 0 0 0 0 0 0 0 0 0 0
8 7 4 2 1 0 0 1 0 0 2 3 3 3 2 1 0 0 0 0 0 0 0 0 0 0 0 0 0 0 0 0 0 0 1 1 2 1 0 0 0 0 0
11 10 8 5 3 2 2 2 1 0 0 1 1 3 3 2 0 0 0 0 0 0 0 0 0 0 0 0 0 0 0 0 0 1 2 3 3 2 1 0 0 0 0
15 15 15 12 8 6 5 4 2 1 0 0 0 1 1 1 0 0 0 0 0 0 0 0 0 0 0 0 0 0 0 0 0 1 2 2 2 2 1 0 0 0 0
16 17 18 16 12 8 7 6 5 3 1 1 1 1 1 1 1 0 0 1 1 0 0 0 0 0 0 0 0 0 0 0 0 0 1 1 1 1 0 0 0 0 0
15 16 17 16 14 11 10 9 7 4 3 3 3 3 3 3 2 1 1 2 2 1 0 0 0 0 0 0 0 0 0 0 0 0 0 0 0 0 0 0 0 0 0
13 15 16 16 15 14 13 12 8 6 6 6 5 4 4 4 3 1 1 2 2 1 1 1 0 0 0 0 0 0 0 0 0 0 0 0 0 0 0 0 0 0 0
14 15 17 17 15 14 14 11 9 7 7 6 6 5 4 3 2 1 0 1 2 2 2 2 1 0 0 0 0 0 0 0 0 0 1 1 0 0 0 0 0 0 0
18 17 18 18 17 15 14 11 10 8 7 6 6 6 4 3 1 0 0 0 1 2 2 2 1 0 0 0 0 0 0 0 0 1 2 1 0 0 0 0 0 0 0
18 17 17 17 17 17 16 13 11 10 8 7 7 6 4 2 1 1 1 1 1 1 1 1 0 0 0 0 0 0 0 0 0 2 2 1 0 0 0 0 0 0 0
14 14 13 14 15 17 17 14 11 9 8 7 6 6 4 2 1 1 2 2 2 1 0 0 0 0 0 1 1 1 0 0 0 1 1 1 0 0 0 0 0 0 0
11 10 10 12 14 15 16 14 10 7 5 3 4 4 3 2 1 1 1 1 1 1 0 0 0 1 1 2 2 2 1 1 1 0 0 0 0 0 0 0 0 0 0
9 7 8 11 13 14 13 12 9 5 2 2 2 1 1 1 1 0 0 0 0 0 0 0 1 2 3 3 3 3 3 2 2 1 0 0 0 0 0 0 0 0 0
9 7 7 8 10 11 10 9 7 4 3 3 2 1 1 0 0 0 0 0 1 1 1 1 2 3 3 3 3 3 3 3 2 1 0 0 0 0 0 0 0 0 0
9 8 7 6 6 7 7 5 3 3 3 4 5 4 2 0 0 0 0 2 4 4 3 2 3 3 3 3 3 3 3 3 2 1 0 0 0 0 0 0 0 0 0
7 7 5 4 4 4 4 3 1 1 2 4 5 5 4 2 2 2 2 3 5 6 5 4 3 3 3 3 3 3 3 3 2 1 0 0 0 0 0 0 0 0 0
5 4 4 3 3 3 3 2 1 0 1 2 3 4 5 5 5 5 5 5 6 6 6 5 4 3 3 3 3 3 3 3 2 1 0 0 0 0 0 0 0 0 0
3 3 3 3 3 3 3 2 0 0 0 1 2 3 4 5 6 6 6 6 6 6 6 6 4 3 3 3 3 3 3 3 3 1 0 0 0 0 0 0 0 0 0
2 3 3 3 3 3 3 2 1 0 0 0 2 4 4 5 6 6 6 6 6 6 6 5 4 3 3 3 3 3 3 3 2 1 0 0 0 0 0 0 0 0 0
1 2 2 2 2 3 3 3 2 1 1 0 1 3 5 6 6 6 6 6 6 6 6 4 3 3 3 3 3 3 3 2 1 1 0 0 0 0 0 0 0 0 0
0 1 1 0 1 2 2 2 2 2 1 0 0 2 5 6 6 5 5 6 6 6 5 4 3 3 2 2 2 2 1 1 0 0 0 0 0 0 0 0 0 0 0
0 0 0 0 0 1 1 1 1 1 1 0 1 3 5 6 6 6 6 6 6 6 5 4 3 2 1 1 1 1 0 0 0 0 0 0 0 0 0 0 0 0 0

GEFSGL_con_probscp_228.txt.gz
Probability
11 10 9 9 8 7 6 9 14 18 19 19 18 16 14 11 8 7 6 7 7 7 6 6 6 7 6 5 3 3 5 7 6 3 2 3 4 5 4 2 2 2 2
12 11 11 11 9 7 8 9 13 16 19 19 19 18 16 14 11 9 8 8 8 7 6 6 7 7 8 7 5 5 6 7 7 4 3 4 5 4 4 3 2 2 2
12 12 12 12 9 7 8 8 10 13 17 18 18 18 18 17 15 13 12 12 10 9 9 9 8 9 9 9 8 6 6 6 7 5 4 5 6 4 4 5 5 5 4
12 12 12 11 8 6 6 6 6 9 12 14 13 14 16 16 16 16 17 16 15 14 14 12 10 9 9 9 8 6 5 5 5 5 4 5 5 5 5 6 7 8 8
13 13 12 10 8 5 4 4 4 6 8 9 9 9 11 12 12 14 16 17 18 18 16 13 10 7 6 5 4 4 5 5 5 4 3 4 5 5 5 7 8 9 9
15 14 13 13 10 7 5 5 6 7 8 9 7 7 7 7 7 7 9 12 15 17 15 11 8 6 5 3 2 1 3 4 4 3 3 3 3 4 5 6 7 7 6
17 16 16 16 15 12 11 11 12 13 14 14 11 9 7 5 3 2 3 7 11 13 13 11 8 7 7 5 3 1 1 1 2 2 2 1 2 4 6 6 5 5 5
20 18 19 20 19 17 18 19 20 20 20 19 16 12 8 5 3 1 2 5 9 11 11 10 8 7 7 7 5 3 1 1 1 1 0 0 1 4 6 5 4 3 4
21 21 22 24 23 23 23 23 24 25 23 21 17 12 8 6 3 1 1 5 9 10 11 10 8 6 6 5 4 3 3 2 1 0 0 0 0 1 3 4 4 3 3
22 23 26 28 27 26 25 24 25 24 22 18 14 10 8 7 4 1 2 5 8 9 10 9 6 5 4 3 3 3 3 4 4 2 2 1 1 1 2 3 4 4 3
24 25 29 30 28 26 25 24 23 22 20 17 14 11 10 9 6 2 2 5 7 8 9 7 5 3 2 2 2 3 3 3 4 5 5 4 3 3 3 4 4 3 3
27 28 31 31 28 27 27 25 23 21 19 17 16 13 11 10 7 3 1 3 5 7 8 5 3 2 1 0 1 2 2 2 3 5 6 6 5 5 6 5 4 3 3
33 32 32 31 29 28 29 28 25 23 20 18 17 14 12 11 9 4 1 1 3 5 5 3 1 1 0 0 0 1 1 2 3 5 5 5 5 6 6 5 3 2 1
34 32 30 29 28 27 27 27 26 25 22 20 17 14 12 12 11 8 5 3 3 3 3 3 1 1 1 1 1 1 1 3 4 4 4 4 5 6 6 5 2 1 0
30 28 26 25 26 25 22 21 22 22 21 19 15 13 12 12 12 9 7 5 4 3 3 4 4 4 3 3 2 2 3 3 4 3 3 4 5 6 6 3 1 0 0
26 25 24 24 24 24 21 18 17 15 14 12 10 9 9 10 8 5 4 3 2 3 4 6 6 6 5 3 3 3 3 3 3 3 4 5 6 6 4 2 0 0 0
23 23 22 23 23 23 22 19 15 11 8 5 4 3 4 5 3 1 0 0 0 2 5 6 6 6 5 4 3 3 3 3 3 3 4 5 5 4 3 1 0 0 0
21 21 21 21 21 22 22 20 16 12 9 6 3 1 1 1 0 0 0 1 1 3 5 6 6 6 6 5 4 4 4 4 3 3 3 4 4 3 3 1 0 0 0
19 19 19 19 19 19 19 17 14 13 11 9 6 3 1 1 1 1 1 3 4 5 6 6 6 6 6 6 6 6 6 5 4 3 3 3 3 3 3 2 1 0 0
19 16 15 16 16 17 16 13 12 12 11 10 7 5 3 2 4 3 3 5 6 6 7 7 7 7 6 6 6 6 6 5 4 3 3 3 3 3 3 3 2 1 0
16 13 12 13 14 14 12 11 11 12 11 10 8 5 3 3 4 5 5 6 6 6 7 8 8 7 7 6 6 6 6 4 3 3 3 3 3 3 3 3 2 1 0
11 10 9 10 10 10 9 9 11 12 11 10 8 4 2 1 3 4 4 5 6 6 7 8 9 8 7 6 6 6 6 4 3 3 3 3 3 3 3 2 1 0 0
7 7 6 7 7 6 6 7 9 10 10 8 6 4 1 1 2 3 3 4 5 6 7 7 8 8 7 6 6 6 6 4 3 3 3 3 3 3 2 1 0 0 0
6 5 5 5 5 6 6 6 7 8 7 6 6 4 2 1 2 3 3 3 4 6 6 7 7 7 7 6 6 6 6 4 3 3 3 3 3 2 1 0 0 0 0
5 5 5 4 4 5 6 6 6 5 4 4 5 5 3 1 1 2 2 1 3 5 6 6 6 6 6 6 6 6 5 3 3 3 3 3 3 1 0 0 0 0 0
6 6 5 4 4 4 4 4 4 4 4 4 4 4 3 1 0 1 1 1 2 4 6 6 6 6 6 6 6 6 4 2 2 3 3 3 2 1 0 0 0 0 0

GEFSGL_con_probscp_234.txt.gz
Probability
24 25 26 24 22 20 21 19 16 13 13 15 17 18 20 20 21 20 18 18 17 16 16 14 12 11 9 8 9 10 9 5 4 3 2 1 1 2 4 4 3 2 2
28 29 28 26 22 20 18 16 13 11 11 13 15 16 17 18 20 20 20 19 18 17 17 16 14 13 11 10 9 8 7 5 4 3 2 2 2 2 3 3 3 2 2
35 35 33 29 24 20 16 12 10 10 10 11 14 15 15 15 17 19 21 21 21 21 20 19 17 15 13 11 9 8 6 5 5 3 3 3 3 3 2 2 2 3 2
43 41 37 32 26 22 17 13 11 11 11 11 13 15 14 13 14 17 20 21 21 20 19 18 17 14 12 10 10 9 8 7 6 5 4 4 4 3 2 1 2 3 3
45 42 38 33 28 24 21 16 14 14 13 13 13 14 13 11 9 12 16 17 16 15 15 14 13 10 9 8 8 9 10 10 9 8 7 6 5 4 3 1 1 2 3
45 41 38 34 29 25 23 20 17 18 18 17 16 15 13 9 6 8 11 13 11 10 11 10 7 6 7 7 7 7 7 9 9 10 9 8 6 6 4 1 0 1 2
45 42 39 35 30 27 26 25 25 26 26 24 22 19 16 10 5 4 7 9 9 8 9 9 7 5 6 8 8 6 6 5 5 8 10 9 8 7 6 3 1 2 3
43 43 41 36 33 32 32 34 35 35 33 30 26 24 21 14 5 2 4 8 9 9 9 10 9 8 7 8 9 9 9 7 3 4 7 8 7 7 7 5 4 4 5
40 42 40 36 35 35 37 39 40 39 36 32 29 28 25 17 7 1 3 8 9 8 9 10 10 8 6 6 9 12 14 11 5 2 2 3 3 4 5 5 6 6 5
40 41 38 34 33 34 36 40 41 39 35 32 31 30 26 18 8 2 3 6 8 7 8 9 8 7 5 4 7 12 14 13 9 4 1 1 1 2 4 5 6 6 6
40 39 36 33 31 32 34 38 39 38 35 33 32 29 25 18 9 3 2 3 5 6 7 7 6 4 2 2 4 7 9 10 9 6 3 2 2 3 5 6 7 6 6
40 38 35 33 32 32 34 35 36 36 34 33 30 27 24 18 10 4 1 1 3 5 6 6 5 2 0 0 1 2 3 4 7 7 3 2 3 4 5 7 7 6 5
40 39 36 34 33 34 34 32 31 31 30 28 26 24 23 19 13 7 3 1 1 3 5 5 3 1 0 0 0 0 0 2 5 6 4 2 3 4 5 7 7 6 6
39 37 35 33 31 32 32 28 25 25 25 25 24 23 22 19 15 11 6 3 2 3 3 3 1 1 0 0 0 1 1 2 5 6 5 3 3 4 5 6 6 6 6
35 31 28 28 28 28 27 23 20 20 20 20 20 20 19 16 12 11 9 5 4 4 4 3 3 3 1 1 1 2 2 3 5 6 6 5 4 4 4 5 6 6 6
33 28 23 23 25 25 23 20 16 13 12 11 11 13 12 9 6 6 6 4 3 3 5 6 6 5 4 3 3 3 3 4 5 6 7 7 6 4 4 4 5 6 6
34 29 24 23 24 23 22 19 16 12 9 6 4 5 5 3 2 1 1 1 1 2 5 7 7 6 6 5 4 4 3 4 6 7 7 7 6 5 4 4 4 5 6
34 31 27 26 25 23 22 21 19 17 14 9 5 2 1 1 0 0 0 0 1 2 5 7 7 6 7 8 7 6 5 6 6 7 7 7 6 6 5 4 3 4 5
33 30 28 26 24 23 23 22 20 19 17 14 10 5 1 0 0 0 0 1 3 4 6 8 8 6 7 9 9 9 8 8 7 8 8 7 7 7 6 4 3 3 4
31 27 24 23 22 22 22 21 18 16 15 14 13 9 4 2 2 2 2 2 4 6 6 8 8 7 8 9 10 11 11 9 8 7 7 6 6 7 6 4 3 3 3
31 27 22 20 20 21 21 19 15 13 13 12 12 9 6 6 7 6 6 5 5 6 6 6 6 6 7 8 10 11 11 10 9 8 7 5 5 4 4 3 3 3 3
30 27 23 21 21 21 19 16 12 12 12 10 9 7 5 6 9 9 8 7 5 5 5 5 4 3 5 8 9 10 10 9 9 8 7 6 4 4 3 3 3 3 3
24 24 24 23 22 20 18 14 11 11 11 10 8 5 4 6 8 9 7 4 4 4 4 5 3 2 4 7 9 9 9 9 8 7 7 6 6 5 4 3 3 3 3
20 21 22 23 22 19 15 12 10 10 11 10 7 4 3 5 6 6 5 3 3 2 2 3 3 2 3 4 7 8 8 8 7 6 6 6 6 5 4 3 3 3 3
20 19 18 18 17 14 12 10 9 10 10 9 7 3 3 3 3 4 4 4 3 1 0 1 1 2 2 2 3 5 5 5 5 6 6 6 5 4 3 3 3 3 3
18 16 14 13 12 10 8 8 9 10 10 9 7 4 2 1 2 3 4 4 3 1 0 0 0 1 2 2 2 2 2 2 2 4 6 6 5 4 3 3 3 3 3

GEFSGL_con_probscp_240.txt.gz
Probability
16 13 10 9 8 7 5 3 1 0 2 4 5 6 6 6 6 6 6 6 5 3 2 2 3 4 4 3 3 3 2 1 0 0 0 0 0 0 0 0 0 0 0
16 15 12 10 8 6 4 2 1 0 2 3 4 5 6 6 6 6 6 6 5 3 1 1 1 2 3 2 2 2 1 0 0 0 0 0 0 0 0 0 0 0 0
17 17 16 13 9 5 3 2 0 0 1 1 2 2 4 5 6 6 6 6 4 2 0 0 0 1 1 1 1 1 0 0 0 0 0 0 0 0 0 0 0 0 0
20 20 20 17 11 7 4 2 0 0 0 1 1 1 2 4 4 4 4 4 3 1 0 0 0 0 0 0 0 0 0 0 0 0 0 0 0 0 0 0 0 0 0
24 24 23 20 15 11 7 4 2 2 2 3 3 3 3 3 3 3 3 3 3 1 0 0 0 0 0 0 0 0 0 0 1 1 0 0 0 0 0 0 0 0 0
25 25 24 21 17 13 9 7 7 6 6 6 6 5 4 3 3 3 3 3 3 1 0 0 1 1 0 0 0 0 0 0 1 1 1 1 1 0 0 0 0 0 0
24 24 23 21 19 15 12 12 11 10 9 9 9 8 5 3 3 2 3 3 2 1 0 1 2 2 1 1 1 1 0 0 1 1 1 1 2 1 0 0 0 0 0
21 22 23 23 21 18 16 15 14 12 11 11 12 10 7 4 3 2 2 3 3 1 0 1 2 3 3 2 2 2 1 0 0 0 0 1 2 1 0 0 0 0 0
19 22 24 23 22 20 20 20 18 16 15 15 15 13 10 7 5 2 2 4 4 2 1 1 3 4 4 3 3 3 2 1 0 0 0 0 1 1 0 0 0 0 0
22 22 23 21 20 20 21 21 21 20 19 19 17 14 11 9 6 3 2 3 4 3 3 3 4 4 3 2 2 3 2 1 0 0 0 0 0 0 0 0 0 0 0
21 20 18 16 17 18 19 20 22 22 21 20 17 14 12 10 7 4 2 2 3 4 5 6 5 4 2 1 1 2 2 1 0 1 1 1 1 1 1 0 0 0 0
17 15 13 12 13 14 17 20 21 22 22 20 17 15 13 10 7 4 2 1 2 3 5 6 5 3 1 0 1 1 1 0 1 2 2 2 2 2 2 1 1 1 1
15 13 11 10 10 12 15 17 18 20 21 19 17 16 15 12 8 4 2 1 1 2 3 4 3 2 1 0 0 0 0 0 1 2 2 3 3 3 3 3 2 2 2
13 12 11 10 10 11 12 14 15 17 19 19 17 15 15 14 10 5 2 1 1 1 1 1 1 1 0 0 0 0 0 0 0 1 1 1 2 2 3 3 3 3 3
12 11 10 9 10 10 10 10 11 13 14 14 14 13 14 15 12 6 3 2 1 0 0 0 1 1 1 1 2 1 1 1 0 0 0 0 1 1 1 2 2 2 2
11 10 8 8 10 11 10 9 9 8 8 8 7 9 11 11 8 4 2 2 1 0 0 2 3 3 2 3 3 3 2 2 1 0 0 0 0 0 0 1 1 1 1
12 9 8 8 9 10 9 9 8 7 5 3 2 3 5 5 3 2 1 0 0 0 1 3 4 4 3 3 3 3 3 4 3 2 1 0 0 0 0 0 0 0 1
11 10 8 8 9 8 8 9 9 9 7 4 2 1 1 1 1 0 0 0 0 0 1 2 3 3 3 3 3 3 4 5 5 5 4 2 0 0 0 0 0 0 1
12 10 9 9 9 9 8 9 10 11 10 8 5 2 0 0 0 0 0 0 0 0 0 1 1 2 2 2 2 3 3 4 5 6 6 4 2 1 1 0 0 0 0
11 10 10 11 10 10 9 9 10 12 12 10 6 4 2 1 0 0 0 0 0 0 0 0 0 1 1 1 1 1 2 3 4 5 6 6 5 3 2 1 1 1 1
10 9 9 10 10 9 8 8 9 11 12 9 6 3 2 1 0 0 0 0 0 0 0 0 0 0 0 1 1 1 1 1 1 3 4 5 5 5 4 3 2 2 2
12 10 8 8 9 8 7 5 6 8 9 8 4 2 1 1 0 0 0 0 0 0 0 0 0 0 0 1 1 0 1 1 1 1 2 3 4 5 5 4 3 3 3
16 13 9 7 7 7 6 4 3 5 7 6 2 0 0 0 0 0 0 0 0 0 0 0 0 0 0 0 0 0 1 2 2 2 2 3 3 4 4 5 4 3 3
16 14 10 7 6 6 5 4 3 4 4 3 1 0 0 0 0 0 0 0 0 0 0 0 0 0 0 0 0 0 1 2 2 3 3 3 3 3 4 4 4 3 3
14 13 11 8 6 4 4 4 4 4 3 2 1 0 0 0 0 0 0 0 0 0 0 0 0 0 0 0 0 0 0 1 1 1 2 2 3 3 3 3 3 2 2
13 13 11 8 5 4 4 5 5 5 3 1 0 0 0 0 0 0 0 0 0 0 0 0 0 0 0 0 0 0 0 0 0 0 1 1 2 3 3 3 2 1 1